Harrisburg, IL

11:56 PM CDT on June 26, 2017 (GMT -0500)
Harrisburg-Raleigh

Weather History for KHSB - September, 2013

Change the Weather History Date:

Friday, September 27, 2013

  Actual Average (KMWA) Record (KMWA)
Temperature  
Mean Temperature 66 °F -  
Max Temperature 82 °F 74 °F 93 °F (1998)
Min Temperature 50 °F 50 °F 33 °F (2007)
Growing Degree Days 16 (Base 50)    
Moisture  
Dew Point 55 °F    
Average Humidity 75    
Maximum Humidity 100    
Minimum Humidity 34    
Precipitation  
Precipitation 0.00 in - - ()
Sea Level Pressure  
Sea Level Pressure 30.09 in    
Wind  
Wind Speed 2 mph (ESE)    
Max Wind Speed 10 mph    
Max Gust Speed 18 mph    
Visibility 8 miles    
Events Fog    
Averages and records for this station are not official NWS values.
T = Trace of Precipitation, MM = Missing Value Source: NWS Daily Summary

Daily Weather History Graph

Daily Weather History Graph

Search for Another Location

Airport or City:

Trip Planner

Search our weather history database for the weather conditions in past years. The results will help you decide how hot, cold, wet, or windy it might be!

Date:

Astronomy

Sep. 27, 2013 Rise Set
Actual Time 6:46 AM CDT 6:43 PM CDT
Civil Twilight 6:20 AM CDT 7:09 PM CDT
Nautical Twilight 5:49 AM CDT 7:39 PM CDT
Astronomical Twilight 5:18 AM CDT 8:10 PM CDT
Moon No Moon Rise 2:15 PM CDT
Length of Visible Light 12h 48m
Length of Day
11h 56m
Last Quarter, 45% of the Moon is Illuminated
Sep 27
Last Quarter
Oct 4
New
Oct 11
First Quarter
Oct 18
Full
Oct 26
Last Quarter

Hourly Weather History & Observations

Time (CDT) Temp. Heat Index Dew Point Humidity Pressure Visibility Wind Dir Wind Speed Gust Speed Precip Events Conditions
12:15 AM 57.4 °F - 56.1 °F 96% 30.06 in 7.0 mi Calm Calm - N/A   Clear
12:35 AM 58.1 °F - 57.2 °F 97% 30.06 in 7.0 mi Calm Calm - N/A   Clear
12:55 AM 57.0 °F - 56.3 °F 97% 30.06 in 7.0 mi Calm Calm - N/A   Clear
1:15 AM 58.3 °F - 58.1 °F 99% 30.06 in 7.0 mi Calm Calm - N/A   Clear
1:35 AM 56.7 °F - 56.3 °F 99% 30.06 in 5.0 mi Calm Calm - N/A   Clear
1:55 AM 57.2 °F - 56.5 °F 97% 30.07 in 7.0 mi Calm Calm - N/A   Clear
2:15 AM 57.0 °F - 55.8 °F 96% 30.07 in 7.0 mi Calm Calm - N/A   Clear
2:35 AM 54.7 °F - 54.1 °F 98% 30.07 in 7.0 mi Calm Calm - N/A   Clear
2:55 AM 54.9 °F - 54.7 °F 99% 30.07 in 7.0 mi Calm Calm - N/A   Clear
3:15 AM 54.9 °F - 54.9 °F 100% 30.07 in 5.0 mi Calm Calm - N/A   Clear
3:35 AM 54.3 °F - 54.3 °F 100% 30.07 in 5.0 mi NNE 3.5 mph - N/A   Clear
3:55 AM 53.6 °F - 53.6 °F 100% 30.07 in 5.0 mi Calm Calm - N/A   Clear
4:15 AM 52.7 °F - 52.7 °F 100% 30.08 in 4.0 mi Calm Calm - N/A   Clear
4:35 AM 53.1 °F - 53.1 °F 100% 30.08 in 3.0 mi Calm Calm - N/A   Clear
4:55 AM 52.9 °F - 52.9 °F 100% 30.08 in 2.5 mi Calm Calm - N/A   Clear
5:15 AM 52.7 °F - 52.7 °F 100% 30.09 in 3.0 mi Calm Calm - N/A   Clear
5:35 AM 51.3 °F - 51.3 °F 100% 30.10 in 0.2 mi Calm Calm - N/A Fog Fog
5:55 AM 52.5 °F - 52.5 °F 100% 30.10 in 0.8 mi Calm Calm - N/A   Mist
6:15 AM 50.9 °F - 50.9 °F 100% 30.11 in 0.8 mi Calm Calm - N/A   Mist
6:35 AM 50.5 °F - 50.5 °F 100% 30.12 in 1.5 mi Calm Calm - N/A   Mist
6:55 AM 50.5 °F - 50.5 °F 100% 30.13 in 0.2 mi Calm Calm - N/A Fog Fog
7:15 AM 50.0 °F - 50.0 °F 100% 30.14 in 0.2 mi Calm Calm - N/A Fog Fog
7:35 AM 52.9 °F - 52.9 °F 100% 30.14 in 3.0 mi Calm Calm - N/A   Clear
7:55 AM 56.7 °F - 56.7 °F 100% 30.14 in 3.0 mi Calm Calm - N/A   Clear
8:15 AM 59.2 °F - 59.2 °F 100% 30.15 in 5.0 mi East 3.5 mph - N/A   Clear
8:35 AM 62.2 °F - 61.2 °F 96% 30.15 in 7.0 mi East 4.6 mph - N/A   Clear
8:55 AM 64.6 °F - 61.0 °F 88% 30.15 in 10.0 mi ESE 5.8 mph - N/A   Clear
9:15 AM 67.1 °F - 59.5 °F 77% 30.15 in 10.0 mi East 4.6 mph - N/A   Clear
9:35 AM 69.1 °F - 59.2 °F 71% 30.15 in 10.0 mi East 4.6 mph - N/A   Clear
9:55 AM 70.7 °F - 59.7 °F 68% 30.15 in 10.0 mi ESE 4.6 mph - N/A   Clear
10:15 AM 72.0 °F - 58.8 °F 63% 30.15 in 10.0 mi ESE 5.8 mph - N/A   Clear
10:35 AM 74.3 °F - 58.6 °F 58% 30.15 in 10.0 mi East 5.8 mph - N/A   Clear
10:55 AM 75.2 °F - 57.4 °F 54% 30.15 in 10.0 mi East 5.8 mph - N/A   Clear
11:15 AM 75.4 °F - 56.7 °F 52% 30.15 in 10.0 mi ESE 5.8 mph - N/A   Clear
11:35 AM 76.6 °F - 55.4 °F 48% 30.15 in 10.0 mi SE 8.1 mph - N/A   Clear
11:55 AM 77.9 °F - 55.6 °F 46% 30.14 in 10.0 mi East 8.1 mph - N/A   Clear
12:15 PM 78.1 °F - 54.7 °F 44% 30.14 in 10.0 mi ESE 5.8 mph - N/A   Clear
12:35 PM 77.7 °F - 53.6 °F 43% 30.12 in 10.0 mi SE 3.5 mph - N/A   Clear
12:55 PM 79.5 °F - 54.1 °F 41% 30.12 in 10.0 mi ESE 10.4 mph 16.1 mph N/A   Clear
1:15 PM 79.2 °F - 54.3 °F 42% 30.11 in 10.0 mi ESE 8.1 mph - N/A   Clear
1:35 PM 80.2 °F 80.2 °F 54.7 °F 41% 30.10 in 10.0 mi SE 8.1 mph 18.4 mph N/A   Clear
1:55 PM 80.1 °F 80.1 °F 54.5 °F 41% 30.09 in 10.0 mi ESE 10.4 mph - N/A   Clear
2:15 PM 80.6 °F 80.4 °F 54.5 °F 40% 30.09 in 10.0 mi East 9.2 mph - N/A   Clear
2:35 PM 80.2 °F 80.2 °F 54.5 °F 41% 30.08 in 10.0 mi Calm Calm - N/A   Clear
2:55 PM 81.0 °F 80.4 °F 53.4 °F 38% 30.07 in 10.0 mi SSE 5.8 mph - N/A   Clear
3:15 PM 81.3 °F 80.8 °F 54.3 °F 39% 30.06 in 10.0 mi ESE 5.8 mph - N/A   Clear
3:35 PM 81.3 °F 80.7 °F 53.6 °F 38% 30.06 in 10.0 mi Calm Calm - N/A   Clear
3:55 PM 81.5 °F 80.8 °F 53.4 °F 38% 30.06 in 10.0 mi ESE 6.9 mph - N/A   Clear
4:15 PM 81.7 °F - 52.0 °F 36% 30.05 in 10.0 mi ESE 6.9 mph - N/A   Clear
4:35 PM 81.7 °F - 51.3 °F 35% 30.05 in 10.0 mi SE 8.1 mph - N/A   Clear
4:55 PM 81.7 °F - 50.9 °F 34% 30.05 in 10.0 mi SE 6.9 mph - N/A   Clear
5:15 PM 81.5 °F - 50.4 °F 34% 30.06 in 10.0 mi SE 5.8 mph - N/A   Clear
5:35 PM 80.8 °F - 50.5 °F 35% 30.06 in 10.0 mi SE 3.5 mph - N/A   Clear
5:55 PM 79.3 °F - 54.0 °F 41% 30.06 in 10.0 mi South 5.8 mph - N/A   Clear
6:15 PM 78.1 °F - 54.7 °F 44% 30.06 in 10.0 mi SSE 3.5 mph - N/A   Clear
6:35 PM 75.7 °F - 55.4 °F 49% 30.06 in 10.0 mi SSE 4.6 mph - N/A   Clear
6:55 PM 72.5 °F - 56.3 °F 57% 30.06 in 10.0 mi SSE 3.5 mph - N/A   Clear
7:15 PM 69.3 °F - 56.5 °F 64% 30.06 in 10.0 mi SSE 4.6 mph - N/A   Clear
7:35 PM 66.6 °F - 57.0 °F 71% 30.07 in 10.0 mi Calm Calm - N/A   Clear
7:55 PM 65.5 °F - 57.9 °F 77% 30.07 in 10.0 mi Calm Calm - N/A   Clear
8:15 PM 63.7 °F - 57.2 °F 79% 30.07 in 10.0 mi Calm Calm - N/A   Clear
8:35 PM 62.1 °F - 56.8 °F 83% 30.08 in 10.0 mi East 3.5 mph - N/A   Clear
8:55 PM 59.9 °F - 56.8 °F 90% 30.08 in 10.0 mi Calm Calm - N/A   Clear
9:15 PM 59.4 °F - 56.1 °F 89% 30.08 in 10.0 mi Calm Calm - N/A   Clear
9:35 PM 58.5 °F - 57.0 °F 95% 30.08 in 10.0 mi Calm Calm - N/A   Clear
9:55 PM 57.6 °F - 56.1 °F 95% 30.08 in 10.0 mi Calm Calm - N/A   Clear
10:15 PM 57.7 °F - 56.8 °F 97% 30.08 in 10.0 mi Calm Calm - N/A   Clear
10:35 PM 56.3 °F - 55.0 °F 96% 30.08 in 10.0 mi Calm Calm - N/A   Clear
10:55 PM 56.3 °F - 55.6 °F 97% 30.08 in 10.0 mi Calm Calm - N/A   Clear
11:15 PM 56.8 °F - 55.9 °F 97% 30.08 in 10.0 mi Calm Calm - N/A   Clear
11:35 PM 56.1 °F - 55.8 °F 99% 30.08 in 10.0 mi Calm Calm - N/A   Clear
11:55 PM 55.9 °F - 55.6 °F 99% 30.08 in 7.0 mi Calm Calm - N/A   Clear